Lexington Weather

Lexington, Massachusetts, USA

34°F
10/30/2020 6:39am 
  • Lexington Conditions: Light snow, Mist, Overcast
  • Temperature: 34.2°F / 1.2°CColder 1.2°F than last hour.
  • Dew Point: 33.4°FDecreased 1.3°Fsince last hour.
  • Relative Humidity: 97
  • Wind: Wind from N N 2 mph, 10-min avg: 2 mph, gust: 8 mph
  • Barometer: 29.76 in Steady
  • Visibility: 5 miles
  • Rain Today: 0.09 in
  •   
Southeast Middlesex County - Winter Weather Advisory
 - SEE ALL NEARBY ALERTS -

Regional Weather Roundup
for Boston / Norton, MA

        
000
ASUS41 KBOX 242105
RWRBOX

REGIONAL WEATHER ROUNDUP
NATIONAL WEATHER SERVICE BOSTON/NORTON MA
500 PM EDT SAT OCT 24 2020

NOTE:  "FAIR" INDICATES FEW OR NO CLOUDS BELOW 12,000 FEET WITH NO 
SIGNIFICANT WEATHER AND/OR OBSTRUCTIONS TO VISIBILITY.

MAZALL-242200-
EASTERN MASSACHUSETTS
  
CITY           SKY/WX    TMP DP  RH WIND       PRES   REMARKS
BOSTON         MOCLDY    67  57  70 W7        29.83R                  
BEVERLY        CLOUDY    68  59  73 W5        29.81S                  
LAWRENCE       CLOUDY    66  55  67 NW15G23   29.86R                  
BEDFORD        CLOUDY    67  58  72 W5        29.82R                  
BLUE HILL        N/A     63  59  87 W5        29.83S                  
NORWOOD        CLOUDY    68  59  73 W8        29.83R                  
MARSHFIELD     CLOUDY    68  61  77 MISG      29.82S                  
PLYMOUTH       CLOUDY    66  58  75 SW8       29.83S                  
TAUNTON        CLOUDY    67  59  75 VRB5      29.84R                  
NEW BEDFORD    CLOUDY    67  60  78 W7        29.84S                  
$$

MAZALL-242200-
CAPE COD AND THE ISLANDS
  
CITY           SKY/WX    TMP DP  RH WIND       PRES   REMARKS
FALMOUTH       MOCLDY    63  61  94 W12       29.84S                  
HYANNIS        CLOUDY    64  59  83 W9        29.83S                  
CHATHAM        PTCLDY    63  58  83 SW7       29.85S                  
PROVINCETOWN   CLOUDY    62  59  90 SW12      29.83F                  
NANTUCKET      CLOUDY    63  57  81 SW10      29.85F                  
MARTHAS VNYRD  CLOUDY    64  60  87 W5        29.85F                  
$$
 
MAZALL-242200-
CENTRAL AND WESTERN MASSACHUSETTS
  
CITY           SKY/WX    TMP DP  RH WIND       PRES   REMARKS
WORCESTER      CLOUDY    62  52  69 W10       29.87R                  
FITCHBURG      CLOUDY    66  48  52 NW13G20   29.87R                  
ORANGE         MOCLDY    62  48  60 NW12      29.90R                  
SPRINGFIELD    PTCLDY    62  46  56 N16       29.88R                  
WESTFIELD      MOCLDY    62  46  55 NW13      29.90R                  
NORTH ADAMS    CLOUDY    55  43  63 W7        29.95R                  
PITTSFIELD     MOCLDY    52  42  69 NW14      29.94R                  
$$
 
RIZALL-242200-
RHODE ISLAND
  
CITY           SKY/WX    TMP DP  RH WIND       PRES   REMARKS
PROVIDENCE     CLOUDY    66  60  81 W6        29.85S                  
NEWPORT        CLOUDY    62  61  96 VRB3      29.85S FOG              
BLOCK ISLAND   CLOUDY    63  60  90 W6        29.88R                  
SMITHFIELD     CLOUDY    64  61  90 W6        29.86R                  
WESTERLY       LGT RAIN  63  60  90 CALM      29.87R FOG              
$$
 
CTZALL-242200-
CONNECTICUT
  
CITY           SKY/WX    TMP DP  RH WIND       PRES   REMARKS
BRADLEY INTL   MOCLDY    62  44  51 NW14      29.89R                  
HARTFORD       MOCLDY    64  46  52 NW6       29.89R                  
BRIDGEPORT     PTCLDY    63  53  70 NW9       29.90R                  
DANBURY        CLOUDY    59  47  64 NW8       29.93R                  
GROTON         CLOUDY    63  59  87 NW6       29.87R                  
NEW HAVEN      CLOUDY    63  51  65 NW7       29.90R                  
CHESTER        CLOUDY    61  55  82 NW7       29.89R                  
MERIDEN        MOCLDY    62  45  53 NW6       29.90R                  
WILLIMANTIC    CLOUDY    62  53  72 W3        29.87S                  
OXFORD         PTCLDY    58  48  69 NW6       29.92R                  
$$

MEZ002-015-021-024-NHZ003-005-008-011-012-014-VTZ005-008-242200-
NORTHERN NEW ENGLAND
  
CITY           SKY/WX    TMP DP  RH WIND       PRES   REMARKS
PORTLAND ME    CLOUDY    60  56  86 CALM      29.84R                  
BANGOR ME      CLOUDY    59  53  80 NW9       29.82S                  
CONCORD NH     CLOUDY    56  41  57 NW18G28   29.89R                  
MANCHESTER NH  MOCLDY    60  48  64 N17G26    29.86R                  
NASHUA NH      MOCLDY    61  53  75 N15G30    29.88R                  
PORTSMOUTH NH  CLOUDY    62  52  69 NW15      29.83                   
JAFFREY NH     CLOUDY    59  46  62 NW7       29.90R                  
KEENE NH       PTCLDY    58  45  62 N14       29.91R                  
BURLINGTON VT  CLOUDY    48  33  56 NW9       30.03S                  
MT. WASHINGTON MOCLDY    32  10  40 W35         N/A  WCI  17          
$$

NYZ052-076-242200-
EASTERN NEW YORK
  
CITY           SKY/WX    TMP DP  RH WIND       PRES   REMARKS
ALBANY         MOCLDY    51  40  65 W16G25    29.99R                  
NEW YORK CITY  PTSUNNY   68  51  54 NW14      29.90R                  
$$
 
ANZALL-242200-
MARINE OBSERVATIONS
  
STATION/POSITION TIME  TEMP    WIND        PRES    VSBY  WAVE
                       AIR SEA DIR/SP/G                  HT/PER
                 (UTC) (F)     (DEG/KT/KT) (MB)    (MI)  (FT/S)
BOSTON BUOY      2050   62 60  250/  6/  8 1008.6R         5/10
BUZZARDS BAY     2000          240/ 13/ 14 1011.9F
NANTUCKET SOUND  2050      62  230/ 10/ 12   N/A           1/ 6
MASS BAY-STELLWA 2004   62 58  230/  6/  8 1008.7F  1 7/8  5/11
ISLE OF SHOALS   2000   61     200/ 10/ 10 1009.1S
S OF BLOCK IS    2026      63                N/A           6/13
$$

......................KEY.........................
  SKY/WX - SKY CONDITION/PRESENT WEATHER
  TMP    - TEMPERATURE IN FAHRENHEIT
  DWPT   - DEWPOINT IN FAHRENHEIT
  RH     - RELATIVE HUMIDITY IN PERCENT
  WIND   - DIRECTION AND SPEED IN MPH
  PRES   - MEAN SEA LEVEL PRESSURE IN INCHES OF HG
  WCI    - WIND CHILL INDEX
  VSB    - VISIBILITY IN MILES
  HX     - HEAT INDEX
  TC     - TEMPERATURE IN CELSIUS
  VRB    - VARIABLE WIND DIRECTION
  N/A    - NOT AVAILABLE
  
      

Other recent Regional Weather Roundups

Fri Oct 30, 6:04am

Fri Oct 30, 5:04am

Fri Oct 30, 4:04am

Fri Oct 30, 3:04am

Fri Oct 30, 2:04am

Fri Oct 30, 1:04am

Fri Oct 30, 12:04am

Thu Oct 29, 11:04pm

Thu Oct 29, 10:04pm

Thu Oct 29, 9:04pm

Thu Oct 29, 8:04pm

Thu Oct 29, 7:04pm

Thu Oct 29, 6:04pm

Thu Oct 29, 5:05pm

Thu Oct 29, 4:05pm

Thu Oct 29, 3:05pm

Thu Oct 29, 2:04pm

Thu Oct 29, 1:04pm

Thu Oct 29, 12:04pm

Thu Oct 29, 11:04am

Thu Oct 29, 10:04am

Thu Oct 29, 9:04am

Thu Oct 29, 8:04am

Thu Oct 29, 7:04am

Thu Oct 29, 6:04am

Thu Oct 29, 5:04am

Thu Oct 29, 4:04am

Thu Oct 29, 3:04am

Thu Oct 29, 2:04am

Thu Oct 29, 1:05am

Thu Oct 29, 12:04am

Wed Oct 28, 11:05pm

Wed Oct 28, 10:04pm

Wed Oct 28, 9:04pm

Wed Oct 28, 8:04pm

Wed Oct 28, 7:05pm

Wed Oct 28, 6:04pm

Wed Oct 28, 5:05pm

Wed Oct 28, 4:04pm

Wed Oct 28, 3:04pm

Wed Oct 28, 2:04pm

Wed Oct 28, 1:05pm

Wed Oct 28, 12:05pm

Wed Oct 28, 11:05am

Wed Oct 28, 10:04am

Wed Oct 28, 9:04am

Wed Oct 28, 8:04am

Wed Oct 28, 7:04am

Wed Oct 28, 6:04am

Wed Oct 28, 5:05am

Wed Oct 28, 4:04am

Wed Oct 28, 3:04am

Wed Oct 28, 2:04am

Wed Oct 28, 1:05am

Wed Oct 28, 12:04am

Tue Oct 27, 11:04pm

Tue Oct 27, 10:04pm

Tue Oct 27, 9:05pm

Tue Oct 27, 8:04pm

Tue Oct 27, 7:04pm

Tue Oct 27, 6:04pm

Tue Oct 27, 5:04pm

Tue Oct 27, 4:05pm

Tue Oct 27, 3:04pm

Tue Oct 27, 2:04pm

Tue Oct 27, 1:04pm

Tue Oct 27, 12:04pm

Tue Oct 27, 11:04am

Tue Oct 27, 10:04am

Tue Oct 27, 9:04am

Tue Oct 27, 8:04am

Tue Oct 27, 7:04am

Tue Oct 27, 6:04am

Tue Oct 27, 5:04am

Tue Oct 27, 4:04am

Tue Oct 27, 3:04am

Tue Oct 27, 2:05am

Tue Oct 27, 1:04am

Tue Oct 27, 12:04am

Mon Oct 26, 11:05pm

Mon Oct 26, 10:04pm

Mon Oct 26, 9:04pm

Mon Oct 26, 8:04pm

Mon Oct 26, 7:04pm

Mon Oct 26, 6:04pm

Mon Oct 26, 5:04pm

Mon Oct 26, 4:05pm

Mon Oct 26, 2:04pm

Mon Oct 26, 1:04pm

Mon Oct 26, 12:04pm

Mon Oct 26, 11:05am

Mon Oct 26, 10:04am

Mon Oct 26, 9:04am

Mon Oct 26, 8:04am

Mon Oct 26, 7:04am

Mon Oct 26, 6:04am

Mon Oct 26, 5:04am

Mon Oct 26, 4:04am

Mon Oct 26, 3:04am

Mon Oct 26, 2:04am

Mon Oct 26, 1:04am

Mon Oct 26, 12:04am

Sun Oct 25, 11:05pm

Sun Oct 25, 10:04pm

Sun Oct 25, 9:04pm

Sun Oct 25, 8:04pm

Sun Oct 25, 7:04pm

Sun Oct 25, 6:04pm

Sun Oct 25, 5:04pm

Sun Oct 25, 4:05pm

Sun Oct 25, 3:04pm

Sun Oct 25, 2:04pm

Sun Oct 25, 1:04pm

Sun Oct 25, 12:04pm

Sun Oct 25, 11:04am

Sun Oct 25, 10:04am

Sun Oct 25, 9:04am

Sun Oct 25, 8:04am

Sun Oct 25, 7:04am

Sun Oct 25, 6:04am

Sun Oct 25, 5:04am

Sun Oct 25, 4:04am

Sun Oct 25, 3:04am

Sun Oct 25, 2:04am

Sun Oct 25, 1:05am

Sun Oct 25, 12:04am

Sat Oct 24, 11:04pm

Sat Oct 24, 10:04pm

Sat Oct 24, 9:04pm

Sat Oct 24, 8:04pm

Sat Oct 24, 7:04pm

Sat Oct 24, 6:04pm

Sat Oct 24, 4:04pm

Sat Oct 24, 3:04pm

Sat Oct 24, 2:04pm

Sat Oct 24, 1:05pm

Sat Oct 24, 12:04pm

Sat Oct 24, 11:05am

Sat Oct 24, 10:05am

Sat Oct 24, 9:04am

Sat Oct 24, 8:04am

Sat Oct 24, 7:04am

Sat Oct 24, 6:04am

Sat Oct 24, 5:04am

Sat Oct 24, 4:04am

Sat Oct 24, 3:04am

Sat Oct 24, 2:04am

Sat Oct 24, 1:05am

Sat Oct 24, 12:04am

Fri Oct 23, 11:04pm

Fri Oct 23, 10:04pm

Fri Oct 23, 9:04pm

Fri Oct 23, 8:05pm

Fri Oct 23, 7:04pm

Fri Oct 23, 6:04pm

Fri Oct 23, 5:05pm

Fri Oct 23, 4:04pm

Fri Oct 23, 3:04pm

Fri Oct 23, 2:05pm

Fri Oct 23, 1:04pm

Fri Oct 23, 12:04pm

Fri Oct 23, 11:04am

Fri Oct 23, 10:04am

Fri Oct 23, 9:04am

Fri Oct 23, 8:04am

Fri Oct 23, 7:04am

Meta data:

ID: 94f64c89-9e05-4d5a-990d-ffaa7faedfa6
Link: https://api.weather.gov/products/94f64c89-9e05-4d5a-990d-ffaa7faedfa6